[[{"header":{"parameterUnit":"m.s-1","parameterCategory":1,"la1":30.2991,"la2":30.254,"lo1":-89.0895,"lo2":-89.0444,"dy":0.0017,"dx":0.0017,"nx":28,"ny":28,"refTime":"2023-08-08T03:00:00:Z","depth":0,"parameterNumber":2,"parameterNumberName":"U-component_of_WINDS"},"data":[0,0,0,0,0,0,0,0,0,0,0,0,0,0,0,0,0,0,0,0,0,0,0,0,0,0,0,0,0,0,0,0,0,0,0,0,0,0,0,0,0,0,0,0,0,0,0,0,0,0,0,0,0,0,0,0,0,0,2.9652,2.9653,0,2.9786,2.9787,2.9789,2.9799,2.9798,2.9796,2.9795,2.9939,2.9944,2.9949,0,0,0,0,0,0,0,0,0,0,0,0,0,2.9411,2.9415,2.9651,2.9653,2.9655,2.9785,2.9787,2.9789,2.98,2.9798,2.9796,2.9794,2.9937,2.9943,2.995,0,0,0,0,0,0,0,0,0,0,0,0,0,2.9527,2.9416,2.9651,2.9676,2.9679,2.9785,2.9787,2.979,2.98,2.9798,2.9795,2.9793,2.9935,2.9943,2.995,3.0043,0,0,2.9974,2.9978,0,0,0,0,0,0,0,0,2.9521,2.9536,2.967,2.9674,2.9678,2.9773,2.9755,2.9875,2.98,2.9754,2.9795,2.9792,2.9886,2.9898,2.9928,3.005,3.0056,2.9975,2.998,2.9983,2.9985,0,0,0,0,0,0,0,2.9512,2.953,2.9705,2.9672,2.9677,2.9682,2.9696,2.9778,2.9831,2.9758,2.9759,2.9775,2.9888,2.992,2.9931,3.0058,2.9975,2.9982,2.9987,2.999,3.0264,3.0266,0,0,0,0,0,0,2.9499,2.9524,2.97,2.9709,2.9592,2.9688,2.9704,2.9745,2.983,2.9841,2.9776,2.9775,2.9908,2.9922,2.9937,3.0051,2.9983,2.999,2.9995,3.0261,3.0264,3.0267,0,0,0,0,0,0,2.9494,2.9514,2.9695,2.9616,2.964,2.9694,2.9741,2.9749,2.9781,2.9844,2.9854,2.9799,2.9907,2.9926,3.0016,3.0056,2.9994,3.0001,3.0258,3.0262,3.0266,3.028,0,0,0,0,0,0,2.9487,2.9513,2.9547,2.9617,2.9644,2.9771,2.9743,2.9753,2.9794,2.9793,2.9868,2.9879,2.9907,3.0004,3.0024,3.0066,3.0007,3.0255,3.026,3.0265,3.0276,3.0284,3.029,0,0,0,0,0,2.9478,2.9547,2.9548,2.957,2.9687,2.9773,2.9788,2.9817,2.9797,2.9833,2.9873,2.9876,3.0048,3.0014,3.0036,3.008,3.0253,3.0259,3.0264,3.0273,3.0282,3.029,0,0,0,0,0,0,2.9482,2.9556,2.9559,2.9652,2.9706,2.9774,2.982,2.9826,2.9888,2.9885,2.992,2.9937,3.0027,3.0063,3.0023,3.0175,3.0149,3.0159,3.0148,3.0157,3.0164,3.0154,3.0014,0,0,0,0,0,2.9493,2.9554,2.9617,2.9693,2.972,2.9765,2.9804,2.9821,2.9879,2.9902,2.9949,3.0007,3.0074,3.0118,3.0183,3.0282,3.0299,3.0323,3.033,3.0336,3.0345,3.04,3.0412,3.0286,3.0286,3.0286,0,0,2.9518,2.9566,2.9603,2.9695,2.9739,2.9803,2.9784,2.9853,2.9902,2.9914,3.0001,3.0038,3.0105,3.02,3.0244,3.0233,3.0383,3.0343,3.0347,3.0353,3.0407,3.0419,3.043,3.029,3.029,3.0289,0,0,2.9595,2.9638,2.9706,2.9749,2.9815,2.9845,2.9861,2.9929,2.9953,3.0041,3.0052,3.0111,3.0226,3.0273,3.0312,3.0408,3.0414,3.0429,3.0466,3.052,3.0529,3.0538,3.0573,3.0585,3.0437,3.0437,3.0437,0,2.9618,2.9713,2.9741,2.9809,2.985,2.9861,2.9932,2.9974,3.0058,3.0087,3.0072,3.0216,3.0263,3.0369,3.0392,3.0423,3.0444,3.042,3.0525,3.0535,3.0544,3.0577,3.059,3.0439,3.0439,3.0439,3.0438,0,2.9739,2.9805,2.9852,2.9931,2.9977,3.0046,3.0086,3.013,3.0144,3.0176,3.0266,3.0322,3.0398,3.0425,3.044,3.0534,3.0525,3.0518,3.0492,3.0556,3.0588,3.0601,3.0441,3.044,3.044,3.044,0,0,2.9822,2.9915,2.9932,2.9968,3.0041,3.0094,3.0164,3.0237,3.0274,3.0333,3.0394,3.049,3.0484,3.0528,3.0549,3.0596,3.0668,3.0583,3.0585,3.0597,3.0776,3.0781,3.0795,3.0672,3.0675,3.0677,3.077,0,2.9908,3.0031,3.0058,3.0165,3.0227,3.0239,3.03,3.0353,3.0385,3.0444,3.0481,3.0548,3.0535,3.0561,3.0608,3.0649,3.0705,3.0643,3.0731,3.0734,3.0713,3.0812,3.0817,3.0903,3.0783,3.0785,3.0787,0,3.0024,3.0083,3.0195,3.026,3.0288,3.0342,3.0411,3.0467,3.0528,3.0548,3.0597,3.0613,3.0688,3.0659,3.0764,3.0721,3.0759,3.0785,3.0789,3.0798,3.0764,3.0824,3.0931,3.0943,3.0807,3.0805,3.0804,0,3.0074,3.0182,3.0262,3.0293,3.0371,3.0409,3.0444,3.0502,3.0545,3.0606,3.0634,3.0704,3.0743,3.0798,3.0833,3.0808,3.0936,3.0909,3.0956,3.0955,3.0982,3.098,3.1096,3.1006,3.1006,3.1006,3.1006,0,3.0167,3.0235,3.0286,3.0336,3.0413,3.0444,3.0521,3.0556,3.0608,3.0666,3.0682,3.0737,3.078,3.0841,3.0869,3.0952,3.097,3.0989,3.0996,3.0988,3.0985,3.1013,3.1008,3.1009,3.1009,3.1008,3.1007,0,3.0235,3.0272,3.0361,3.0427,3.0446,3.05,3.0557,3.0608,3.064,3.0713,3.0733,3.0784,3.0857,3.0897,3.099,3.1009,3.1102,3.1105,3.108,3.1083,3.1128,3.1123,3.1266,3.1286,3.1183,3.1184,3.1185,0,3.0292,3.0345,3.0416,3.0455,3.049,3.0553,3.0596,3.063,3.0674,3.0747,3.0788,3.0862,3.0922,3.1039,3.1086,3.1157,3.1162,3.1207,3.1173,3.1163,3.1163,3.1159,3.1165,3.1213,3.1214,3.1215,3.1216,0,3.0389,3.0404,3.0464,3.0531,3.058,3.0635,3.0689,3.0721,3.0764,3.0813,3.0886,3.0933,3.1027,3.11,3.1174,3.1212,3.1222,3.1226,3.1241,3.1233,3.1216,3.1225,3.1096,3.1223,3.1222,3.1221,3.1221,3.1221,3.0454,3.0501,3.0558,3.0625,3.0668,3.0719,3.0768,3.0806,3.0868,3.0945,3.0962,3.104,3.11,3.1201,3.1241,3.1304,3.1295,3.1316,3.1322,3.1326,3.1328,3.1206,3.1318,3.1317,3.1317,3.1317,3.1317,0,3.0551,3.0588,3.0649,3.0723,3.0776,3.0778,3.0838,3.0883,3.095,3.1005,3.1064,3.1149,3.122,3.1272,3.1345,3.1385,3.1392,3.1404,3.1401,3.141,3.1331,3.1311,3.1397,3.1397,3.1397,3.1397,3.1397,3.1397,3.0608,3.0688,3.071,3.0813,3.0851,3.0925,3.0959,3.1006,3.105,3.1143,3.1202,3.1235,3.1289,3.1366,3.1432,3.1446,3.1472,3.1483,3.1498,3.1424,3.1415,3.1407,3.1388,3.1489,3.1489,3.1571,3.1571,3.1572]},{"header":{"parameterUnit":"m.s-1","parameterCategory":1,"la1":30.2991,"la2":30.254,"lo1":-89.0895,"lo2":-89.0444,"dy":0.0017,"dx":0.0017,"nx":28,"ny":28,"refTime":"2023-08-08T03:00:00:Z","depth":0,"parameterNumber":3,"parameterNumberName":"V-component_of_WINDS"},"data":[0,0,0,0,0,0,0,0,0,0,0,0,0,0,0,0,0,0,0,0,0,0,0,0,0,0,0,0,0,0,0,0,0,0,0,0,0,0,0,0,0,0,0,0,0,0,0,0,0,0,0,0,0,0,0,0,0,0,2.1949,2.1949,0,2.2019,2.202,2.2021,2.2054,2.2054,2.2054,2.2054,2.2122,2.2124,2.2126,0,0,0,0,0,0,0,0,0,0,0,0,0,2.1838,2.1839,2.1949,2.1949,2.195,2.2019,2.202,2.2021,2.2054,2.2054,2.2054,2.2054,2.2122,2.2124,2.2126,0,0,0,0,0,0,0,0,0,0,0,0,0,2.1894,2.184,2.1948,2.1976,2.1979,2.2019,2.202,2.2021,2.2054,2.2054,2.2054,2.2054,2.2121,2.2124,2.2126,2.2143,0,0,2.2134,2.2136,0,0,0,0,0,0,0,0,2.1891,2.1898,2.1971,2.1974,2.1977,2.2028,2.2006,2.2062,2.2054,2.2026,2.2054,2.2054,2.2091,2.2096,2.2109,2.2146,2.2149,2.2135,2.2136,2.2138,2.2138,0,0,0,0,0,0,0,2.1887,2.1896,2.1976,2.1972,2.1976,2.1982,2.199,2.2016,2.2057,2.2028,2.2031,2.2039,2.2092,2.2106,2.2111,2.215,2.2135,2.2137,2.2139,2.214,2.2202,2.2202,0,0,0,0,0,0,2.188,2.1892,2.1974,2.1978,2.1933,2.1984,2.1993,2.2012,2.2057,2.2064,2.2039,2.204,2.2102,2.2107,2.2113,2.2135,2.2138,2.214,2.2142,2.2202,2.2202,2.2202,0,0,0,0,0,0,2.1877,2.1887,2.1971,2.1936,2.1947,2.1986,2.2007,2.2013,2.2027,2.2065,2.2072,2.2046,2.2102,2.2109,2.2135,2.2138,2.2141,2.2144,2.2202,2.2202,2.2202,2.2179,0,0,0,0,0,0,2.1874,2.1886,2.1894,2.1936,2.1949,2.1994,2.2007,2.2014,2.2032,2.2035,2.2074,2.208,2.2102,2.2131,2.2138,2.2141,2.2146,2.2202,2.2202,2.2202,2.218,2.2178,2.2177,0,0,0,0,0,2.187,2.1884,2.1894,2.1904,2.1961,2.1994,2.2001,2.2028,2.2032,2.204,2.2064,2.2079,2.2136,2.2133,2.2141,2.2146,2.2202,2.2202,2.2202,2.218,2.2178,2.2177,0,0,0,0,0,0,2.1841,2.189,2.1902,2.1931,2.1958,2.2,2.2011,2.2026,2.2051,2.2052,2.2083,2.2091,2.2114,2.2132,2.2128,2.2163,2.217,2.2172,2.2151,2.2149,2.2148,2.2143,2.2148,0,0,0,0,0,2.1838,2.1862,2.1904,2.1925,2.1938,2.1972,2.1987,2.2005,2.2034,2.2045,2.2071,2.2097,2.2121,2.2136,2.216,2.2182,2.219,2.2189,2.2187,2.2186,2.2187,2.2198,2.2197,2.2203,2.2203,2.2203,0,0,2.1832,2.1862,2.1875,2.192,2.1943,2.1966,2.1981,2.2005,2.2022,2.2049,2.2075,2.2094,2.2125,2.2148,2.216,2.2165,2.2187,2.2186,2.2185,2.2187,2.2198,2.2197,2.2197,2.2203,2.2203,2.2203,0,0,2.1833,2.1858,2.1878,2.1901,2.1936,2.1958,2.1962,2.2001,2.2016,2.2043,2.2063,2.2081,2.2122,2.2143,2.2159,2.2164,2.2178,2.2171,2.2164,2.2174,2.2173,2.2173,2.2174,2.2174,2.2172,2.2172,2.2172,0,2.182,2.1857,2.1886,2.1909,2.1927,2.1952,2.1971,2.1991,2.2032,2.2043,2.2047,2.2098,2.212,2.2148,2.2149,2.2161,2.2166,2.2167,2.2171,2.2172,2.2172,2.2173,2.2173,2.2171,2.2171,2.2171,2.2171,0,2.184,2.1865,2.1876,2.1915,2.1934,2.1955,2.1985,2.2,2.2015,2.2036,2.2061,2.2089,2.2118,2.2126,2.2142,2.2155,2.2157,2.2166,2.2174,2.217,2.2171,2.2172,2.2169,2.2169,2.217,2.217,0,0,2.1826,2.188,2.1883,2.1901,2.194,2.1959,2.1979,2.2008,2.202,2.2046,2.2063,2.2095,2.2103,2.2121,2.2139,2.2148,2.2148,2.2155,2.2157,2.2152,2.2163,2.2156,2.2156,2.2157,2.2157,2.2158,2.216,0,2.1832,2.1872,2.1897,2.1926,2.1947,2.1971,2.1988,2.2013,2.2032,2.2051,2.2072,2.2094,2.2104,2.2114,2.2124,2.2146,2.2151,2.2146,2.2171,2.2172,2.2163,2.2157,2.215,2.2151,2.2161,2.2161,2.2161,0,2.1845,2.1871,2.1902,2.1937,2.1947,2.1962,2.199,2.2009,2.2036,2.2049,2.2068,2.2085,2.2105,2.2111,2.2137,2.2134,2.2145,2.2157,2.2157,2.2161,2.2166,2.2159,2.2152,2.2152,2.2162,2.2162,2.2162,0,2.1831,2.1873,2.1897,2.1911,2.1952,2.1962,2.1979,2.2007,2.2022,2.2045,2.2055,2.208,2.2094,2.2112,2.2134,2.2136,2.2158,2.2166,2.2168,2.2167,2.2172,2.2171,2.2166,2.2179,2.2179,2.2179,2.2179,0,2.1834,2.1852,2.1891,2.1905,2.1925,2.1952,2.197,2.1989,2.2013,2.203,2.205,2.2065,2.2095,2.2113,2.213,2.2148,2.2154,2.2164,2.2169,2.2162,2.2161,2.217,2.2171,2.2179,2.2179,2.2179,2.2179,0,2.1822,2.1849,2.1876,2.1913,2.1922,2.1935,2.1965,2.1979,2.1998,2.2019,2.2025,2.2055,2.2077,2.2101,2.2131,2.2143,2.216,2.2166,2.2151,2.2153,2.2154,2.2153,2.2154,2.2155,2.2168,2.2168,2.2168,0,2.1823,2.1838,2.1875,2.1889,2.1906,2.1927,2.1942,2.1969,2.1984,2.2014,2.2024,2.2047,2.2068,2.2101,2.2124,2.2146,2.2153,2.2152,2.2157,2.2149,2.2152,2.2151,2.2152,2.2151,2.215,2.215,2.215,0,2.1822,2.1833,2.1856,2.1882,2.1901,2.1922,2.1945,2.1954,2.1984,2.1999,2.2023,2.2038,2.2068,2.2091,2.2115,2.2131,2.2145,2.2148,2.215,2.2143,2.2134,2.2138,2.2147,2.2148,2.2148,2.2148,2.2149,2.2149,2.1816,2.1829,2.1857,2.188,2.19,2.192,2.1934,2.1955,2.1975,2.2002,2.2016,2.2038,2.2062,2.2097,2.2112,2.2128,2.2133,2.2135,2.2136,2.2136,2.2134,2.2131,2.2133,2.2133,2.2133,2.2133,2.2133,0,2.1814,2.1833,2.1854,2.1885,2.1903,2.1915,2.194,2.1953,2.1973,2.1995,2.2014,2.2039,2.2061,2.2085,2.2107,2.2115,2.2122,2.212,2.212,2.2123,2.2129,2.2125,2.2114,2.2114,2.2114,2.2114,2.2114,2.2114,2.1816,2.1838,2.1852,2.1883,2.1901,2.1924,2.1937,2.1955,2.1972,2.2,2.2018,2.2034,2.2056,2.2079,2.2098,2.2105,2.2111,2.2108,2.2116,2.2121,2.2123,2.2124,2.2121,2.2109,2.2109,2.2108,2.2108,2.2108]}]]